STARLINK-34681

Last updated on Fri Dec 12 2025 00:02:05 GMT+0000 (Coordinated Universal Time)

1 66438U 25259S 25345.58335648 .00086536 00000+0 20605-2 0 9993 2 66438 43.0003 54.2608 0000949 289.2279 284.5282 15.40625769 5983
UTC large
Height (km)
Speed (km/s)
/
Latitude / Longitude
Inclination (degrees)
Orbital Period (minutes)
Azimuth
Elevation
Range (km)
Doppler Factor

Next 0 passes for location: London (51.5072 / 0.1276)

Sorry there are no passes over London.